カタログに戻る

THORAD AGENA D DEB

運用中PO
NORAD 4918·DEBRIS·🇺🇸 United States

打ち上げ Apr 8, 1970 から Vandenberg Space Force Base

Loading…

次のパス (今後24時間)

TLE

最新Source: Space-Track

元期: Sep 13, 2026, 19:54 UTC

1 04918U 70025FQ  26256.82920974  .00000346  00000-0  77233-3 0  9996
2 04918  99.4939  31.4635 0162509 188.9627 170.8586 13.29662083724416

AllMySatでTHORAD AGENA D DEBをリアルタイム追跡

Download on the App Store